Location: Oshawa
(43.9000°N, 78.8670°W)
Time: 09:24:01
(UTC-04:00)

SPOT 5 - Visible Passes

Search period start: 31 July 2015 00:00
Search period end: 10 August 2015 00:00
Orbit: 821 x 823 km, 98.5° (Epoch: 31 July)

Date Brightness Start Highest point End Pass type
(mag) Time Alt. Az. Time Alt. Az. Time Alt. Az.
31 Jul 3.5 21:16:07 10° SE 21:21:13 48° ENE 21:26:24 10° N visible
31 Jul 5.1 22:57:24 10° SW 23:01:41 23° W 23:05:53 10° NW visible
01 Aug 4.5 22:36:29 10° SSW 22:41:21 35° W 22:46:14 10° NNW visible
02 Aug 3.8 22:15:53 10° S 22:21:06 52° W 22:26:21 10° NNW visible
03 Aug 3.3 21:55:34 10° S 22:00:55 78° WSW 22:06:20 10° NNW visible
04 Aug 3.2 21:35:29 10° SSE 21:40:48 72° ENE 21:46:11 10° N visible
04 Aug 5.5 23:18:21 10° SW 23:21:37 16° W 23:24:39 10° NW visible
05 Aug 3.5 21:15:38 10° SE 21:20:44 48° ENE 21:25:55 10° N visible
05 Aug 5.1 22:56:55 10° SW 23:01:12 23° W 23:05:24 10° NW visible
06 Aug 4.5 22:35:59 10° SSW 22:40:52 35° W 22:45:44 10° NNW visible
07 Aug 3.8 22:15:34 11° S 22:20:37 52° W 22:25:52 10° NNW visible
08 Aug 3.2 21:55:16 11° S 22:00:26 78° WSW 22:05:50 10° NNW visible
09 Aug 3.1 21:34:59 10° SSE 21:40:18 72° ENE 21:45:41 10° N visible
09 Aug 5.5 23:17:51 10° SW 23:21:08 16° W 23:24:10 10° NW visible
